Air Resources Laboratory banner image
Air Resources Laboratory web site National Oceanic and Atmospheric Administration (NOAA)

wa roundup


Office: SEW

ASUS46 KSEW 221010
RWRWA

WASHINGTON REGIONAL WEATHER ROUNDUP
NATIONAL WEATHER SERVICE SEATTLE WA
300 AM PDT FRI JUN 22 2018

NOTE:"FAIR" INDICATES FEW OR NO CLOUDS BELOW 12,000 FEET WITH NO
SIGNIFICANT WEATHER AND/OR OBSTRUCTIONS TO VISIBILITY.

WAZ507-509-555>559-221100-
SEATTLE, TACOMA, EVERETT, AND VICINITY

CITY           SKY/WX    TMP DP  RH WIND       PRES   REMARKS
EVERETT        MOCLDY    55  53  93 N3        30.15S
BOEING FIELD   CLOUDY    59  52  77 S5        30.15R
RENTON         CLOUDY    61  53  75 S6        30.15R
SEATAC AIRPORT CLOUDY    58  52  80 SW7       30.15S
JBLM-MCCHORD   CLOUDY    58  56  92 SW7       30.16R
PUYALLUP       CLOUDY    59  54  82 CALM      30.16R
BREMERTON      CLOUDY    54  52  93 SW5       30.15S
JBLM-FT LEWIS  CLOUDY    57  56  95 S7        30.15S
TACOMA NARROWS CLOUDY    56  51  84 SW7       30.15S
$$

WAZ001-503-506-510-514-515-221100-
NORTH INTERIOR

CITY           SKY/WX    TMP DP  RH WIND       PRES   REMARKS
BELLINGHAM     MOCLDY    57  51  80 S14G23    30.12R
FRIDAY HARBOR  CLEAR     54  48  80 SW12      30.12S
EASTSOUND      CLEAR     57  50  77 S16G23    30.09S
PORT ANGELES   CLOUDY    54  50  86 W6        30.15S
EDIZ HOOK      CLOUDY    54  50  87 W10G16    30.15S
PORT TOWNSEND  CLOUDY    55  54  94 CALM      30.15R
NAS WHIDBEY    CLOUDY    57  50  77 SW10      30.18R
ARLINGTON      CLOUDY    55  52  89 CALM      30.16R
BURLINGTON     CLOUDY    55  52  88 SW5       30.15S
$$

WAZ020-022-039-040-504-511-512-221100-
SOUTHWEST INTERIOR

CITY           SKY/WX    TMP DP  RH WIND       PRES   REMARKS
SHELTON        CLOUDY    56  52  86 SW10      30.13S
OLYMPIA        CLOUDY    57  51  80 SW6       30.16S
CHEHALIS       CLOUDY    59  54  82 CALM      30.18R
KELSO          CLOUDY    59  52  77 NW3       30.19
VANCOUVER      CLOUDY    61  53  75 NW6       30.16R
SCAPPOOSE, OR  CLOUDY    60  51  72 NW7       30.16R
PORTLAND, OR   CLOUDY    62  52  69 NW7       30.16R
$$

WAZ021-516-517-221100-
WASHINGTON COAST

CITY           SKY/WX    TMP DP  RH WIND       PRES   REMARKS
FORKS          CLOUDY    54  50  86 CALM      30.17S
HOQUIAM        CLOUDY    59  53  80 W6        30.17S
ASTORIA, OR    CLOUDY    59  52  77 W5        30.18S
$$

WAZ019-023-024-040-567>569-221100-
CASCADE MOUNTAINS AND COLUMBIA GORGE

CITY           SKY/WX    TMP DP  RH WIND       PRES   REMARKS
STAMPEDE PASS  FOG       50  49  96 VRB7      30.15S VSB 1/4
TROUTDALE, OR  CLOUDY    62  53  72 CALM      30.16R
HOOD RIVER, OR MOSUNNY   63  52  67 W12G22    30.09
THE DALLES, OR PTCLDY    68  51  54 NW12G22   30.04S
$$

WAZ026-027-041>044-520-521-221100-
EAST SLOPES

CITY           SKY/WX    TMP DP  RH WIND       PRES   REMARKS
OMAK           CLEAR     58  56  93 W3        29.95S
WENATCHEE      CLEAR     64  49  57 NW9       29.98R
ELLENSBURG     CLEAR     61  50  67 NW20G29   30.00S
YAKIMA         CLEAR     61  47  59 SW7       29.99R
SUNNYSIDE ARPT SUNNY     54  48  80 CALM      29.98R
YAKIMA TC        N/A     58  44  59 SE5       29.99R
$$

WAZ028-034-035-221100-
COLUMBIA BASIN

CITY           SKY/WX    TMP DP  RH WIND       PRES   REMARKS
EPHRATA        CLEAR     68  46  45 NW6       29.94S
MOSES LAKE     CLEAR     64  53  67 N10       29.94R
PASCO          CLEAR     66  53  63 S12       29.95R
RICHLAND ARPT  SUNNY     70  46  41 SW5       29.94S
HERMISTON, OR  CLEAR     67  51  56 SW17G25   29.98S
$$

WAZ036>038-221100-
NORTHEAST WASHINGTON

CITY           SKY/WX    TMP DP  RH WIND       PRES   REMARKS
SPOKANE GEIGER MOCLDY    60  57  89 E7        29.98R
SPOKANE FELTS  MOCLDY    59  56  89 CALM      29.98R
FAIRCHILD AFB  MOCLDY    57  57 100 N7        29.99R
COEURDALENE,ID CLOUDY    59  57  93 SE3       29.99R
DEER PARK      FOG       56  55  97 VRB3      29.98S VSB 3/4
$$

WAZ029>033-221100-
SOUTHEAST WASHINGTON

CITY           SKY/WX    TMP DP  RH WIND       PRES   REMARKS
PULLMAN        CLEAR     60  53  77 VRB5      30.02S
LEWISTON, ID   CLEAR     65  57  75 E5        29.98R
WALLA WALLA    CLEAR     66  51  58 S9        30.00R
PENDLETON, OR  LGT RAIN  62  46  55 NW8       30.01S
$$